When you browse on this site, cookies collect data to enhance your experience and personalize the content and advertising you see.
Visit our Privacy Policy to learn more. By continuing to use the site, you agree to this use of cookies and data.

Stündliche Wetter Armawir

Heute, 9 August, Sonntag

Zeit Temperatur Niederschläge Wind Luftdruck Luftfeuchtigkeit
00:00 +23°C° 0 mm 1 m/S 684 mmHg 52%
01:00 +23°C° 0 mm 1 m/S 684 mmHg 53%
02:00 +23°C° 0 mm 1 m/S 684 mmHg 54%
03:00 +22°C° 0 mm 1 m/S 684 mmHg 55%
04:00 +22°C° 0 mm 1 m/S 684 mmHg 56%
05:00 +22°C° 0 mm 1 m/S 684 mmHg 56%
06:00 +22°C° 0 mm 1 m/S 684 mmHg 57%
07:00 +25°C° 0 mm 1 m/S 684 mmHg 50%
08:00 +27°C° 0 mm 1 m/S 684 mmHg 42%
09:00 +29°C° 0 mm 1 m/S 685 mmHg 35%
10:00 +30°C° 0 mm 2 m/S 684 mmHg 32%
11:00 +31°C° 0 mm 2 m/S 684 mmHg 29%
12:00 +32°C° 0 mm 2 m/S 684 mmHg 26%
13:00 +34°C° 0 mm 2 m/S 684 mmHg 24%
14:00 +34°C° 0 mm 1 m/S 684 mmHg 22%
15:00 +35°C° 0 mm 1 m/S 683 mmHg 20%
16:00 +34°C° 0 mm 1 m/S 683 mmHg 21%
17:00 +34°C° 0 mm 1 m/S 683 mmHg 21%
18:00 +35°C° 0 mm 2 m/S 683 mmHg 22%
19:00 +31°C° 0 mm 2 m/S 683 mmHg 28%
20:00 +29°C° 0 mm 2 m/S 683 mmHg 35%
21:00 +27°C° 0 mm 2 m/S 683 mmHg 41%
22:00 +26°C° 0 mm 2 m/S 683 mmHg 43%
23:00 +25°C° 0 mm 2 m/S 683 mmHg 45%

Morgen, 10 August, Montag

Zeit Temperatur Niederschläge Wind Luftdruck Luftfeuchtigkeit
00:00 +24°C° 0 mm 1 m/S 683 mmHg 47%
01:00 +24°C° 0 mm 1 m/S 683 mmHg 48%
02:00 +23°C° 0 mm 1 m/S 683 mmHg 49%
03:00 +23°C° 0 mm 1 m/S 683 mmHg 50%
04:00 +23°C° 0 mm 1 m/S 683 mmHg 50%
05:00 +23°C° 0 mm 1 m/S 683 mmHg 51%
06:00 +23°C° 0 mm 1 m/S 684 mmHg 51%
07:00 +26°C° 0 mm 1 m/S 684 mmHg 45%
08:00 +28°C° 0 mm 1 m/S 684 mmHg 39%
09:00 +30°C° 0 mm 2 m/S 685 mmHg 33%
10:00 +32°C° 0 mm 2 m/S 685 mmHg 29%
11:00 +34°C° 0 mm 2 m/S 685 mmHg 26%
12:00 +36°C° 0 mm 2 m/S 685 mmHg 23%
13:00 +36°C° 0 mm 3 m/S 684 mmHg 21%
14:00 +37°C° 0 mm 3 m/S 684 mmHg 20%
15:00 +38°C° 0 mm 3 m/S 684 mmHg 18%
16:00 +38°C° 0 mm 3 m/S 684 mmHg 20%
17:00 +37°C° 0 mm 3 m/S 684 mmHg 21%
18:00 +37°C° 0 mm 3 m/S 684 mmHg 23%
19:00 +34°C° 0 mm 3 m/S 684 mmHg 30%
20:00 +30°C° 0 mm 3 m/S 684 mmHg 38%
21:00 +27°C° 0 mm 3 m/S 684 mmHg 45%
22:00 +27°C° 0 mm 3 m/S 684 mmHg 47%
23:00 +26°C° 0 mm 3 m/S 684 mmHg 48%

übermorgen, 11 August, Dienstag

Zeit Temperatur Niederschläge Wind Luftdruck Luftfeuchtigkeit
00:00 +25°C° 0 mm 2 m/S 684 mmHg 50%
01:00 +25°C° 0 mm 2 m/S 684 mmHg 51%
02:00 +24°C° 0 mm 2 m/S 684 mmHg 52%
03:00 +24°C° 0 mm 2 m/S 684 mmHg 53%
04:00 +24°C° 0 mm 2 m/S 684 mmHg 53%
05:00 +24°C° 0 mm 2 m/S 684 mmHg 54%
06:00 +24°C° 0 mm 2 m/S 684 mmHg 54%
07:00 +26°C° 0 mm 2 m/S 685 mmHg 49%
08:00 +28°C° 0 mm 2 m/S 685 mmHg 43%
09:00 +30°C° 0 mm 2 m/S 685 mmHg 38%
10:00 +31°C° 0 mm 2 m/S 685 mmHg 35%
11:00 +33°C° 0 mm 1 m/S 684 mmHg 32%
12:00 +34°C° 0 mm 1 m/S 684 mmHg 29%
13:00 +35°C° 0 mm 1 m/S 684 mmHg 27%
14:00 +37°C° 0 mm 2 m/S 684 mmHg 25%
15:00 +38°C° 0 mm 2 m/S 683 mmHg 23%
16:00 +37°C° 0 mm 3 m/S 683 mmHg 26%
17:00 +35°C° 0 mm 3 m/S 683 mmHg 29%
18:00 +34°C° 0 mm 4 m/S 683 mmHg 32%
19:00 +33°C° 0.1 mm 4 m/S 684 mmHg 36%
20:00 +30°C° 0.1 mm 4 m/S 684 mmHg 40%
21:00 +28°C° 0.1 mm 4 m/S 684 mmHg 45%
22:00 +27°C° 0.1 mm 4 m/S 684 mmHg 47%
23:00 +26°C° 0.1 mm 3 m/S 684 mmHg 49%

12 August, Mittwoch

Zeit Temperatur Niederschläge Wind Luftdruck Luftfeuchtigkeit
00:00 +25°C° 0.1 mm 3 m/S 684 mmHg 52%
01:00 +25°C° 0 mm 3 m/S 684 mmHg 53%
02:00 +24°C° 0 mm 3 m/S 684 mmHg 55%
03:00 +24°C° 0 mm 3 m/S 684 mmHg 56%
04:00 +24°C° 0 mm 3 m/S 684 mmHg 56%
05:00 +24°C° 0 mm 3 m/S 684 mmHg 57%
06:00 +24°C° 0 mm 3 m/S 685 mmHg 58%
07:00 +25°C° 0 mm 3 m/S 685 mmHg 52%
08:00 +27°C° 0 mm 3 m/S 685 mmHg 46%
09:00 +29°C° 0 mm 3 m/S 685 mmHg 40%
10:00 +31°C° 0 mm 2 m/S 685 mmHg 37%
11:00 +32°C° 0 mm 2 m/S 685 mmHg 34%
12:00 +34°C° 0 mm 2 m/S 685 mmHg 31%
13:00 +35°C° 0 mm 2 m/S 685 mmHg 29%
14:00 +36°C° 0 mm 2 m/S 685 mmHg 28%
15:00 +37°C° 0 mm 2 m/S 685 mmHg 26%
16:00 +36°C° 0 mm 3 m/S 685 mmHg 29%
17:00 +35°C° 0 mm 4 m/S 685 mmHg 31%
18:00 +35°C° 0 mm 4 m/S 684 mmHg 33%
19:00 +33°C° 0 mm 4 m/S 685 mmHg 38%
20:00 +30°C° 0 mm 3 m/S 685 mmHg 42%
21:00 +28°C° 0 mm 3 m/S 685 mmHg 47%
22:00 +27°C° 0 mm 3 m/S 685 mmHg 49%
23:00 +26°C° 0 mm 3 m/S 685 mmHg 51%

13 August, Donnerstag

Zeit Temperatur Niederschläge Wind Luftdruck Luftfeuchtigkeit
00:00 +26°C° 0 mm 2 m/S 685 mmHg 53%
01:00 +25°C° 0 mm 2 m/S 685 mmHg 54%
02:00 +24°C° 0 mm 2 m/S 685 mmHg 55%
03:00 +24°C° 0 mm 2 m/S 684 mmHg 56%
04:00 +24°C° 0 mm 2 m/S 684 mmHg 56%
05:00 +24°C° 0 mm 2 m/S 685 mmHg 56%
06:00 +24°C° 0 mm 2 m/S 685 mmHg 56%
07:00 +26°C° 0 mm 2 m/S 685 mmHg 51%
08:00 +27°C° 0 mm 2 m/S 685 mmHg 46%
09:00 +29°C° 0 mm 2 m/S 685 mmHg 41%
10:00 +30°C° 0 mm 2 m/S 685 mmHg 38%
11:00 +32°C° 0 mm 2 m/S 685 mmHg 36%
12:00 +33°C° 0 mm 1 m/S 685 mmHg 33%
13:00 +35°C° 0 mm 2 m/S 684 mmHg 31%
14:00 +36°C° 0 mm 2 m/S 684 mmHg 28%
15:00 +37°C° 0 mm 2 m/S 684 mmHg 26%
16:00 +36°C° 0 mm 4 m/S 684 mmHg 30%
17:00 +34°C° 0 mm 5 m/S 684 mmHg 33%
18:00 +33°C° 0 mm 7 m/S 683 mmHg 37%
19:00 +30°C° 0.2 mm 5 m/S 684 mmHg 42%
20:00 +28°C° 0.2 mm 4 m/S 684 mmHg 47%
21:00 +26°C° 0.2 mm 3 m/S 684 mmHg 53%
22:00 +26°C° 0.1 mm 3 m/S 684 mmHg 54%
23:00 +26°C° 0.1 mm 3 m/S 684 mmHg 55%

14 August, Freitag

Zeit Temperatur Niederschläge Wind Luftdruck Luftfeuchtigkeit
00:00 +25°C° 0.1 mm 3 m/S 684 mmHg 56%
01:00 +25°C° 0.1 mm 3 m/S 684 mmHg 57%
02:00 +24°C° 0.1 mm 3 m/S 684 mmHg 58%
03:00 +24°C° 0.1 mm 3 m/S 684 mmHg 59%
04:00 +24°C° 0.1 mm 3 m/S 684 mmHg 59%
05:00 +24°C° 0.1 mm 3 m/S 684 mmHg 59%
06:00 +24°C° 0.1 mm 3 m/S 684 mmHg 59%
07:00 +25°C° 0.1 mm 3 m/S 684 mmHg 53%
08:00 +27°C° 0.1 mm 3 m/S 685 mmHg 48%
09:00 +29°C° 0.1 mm 3 m/S 685 mmHg 42%
10:00 +30°C° 0.1 mm 3 m/S 685 mmHg 38%
11:00 +31°C° 0.1 mm 2 m/S 684 mmHg 35%
12:00 +34°C° 0.1 mm 2 m/S 684 mmHg 31%
13:00 +35°C° 0.1 mm 2 m/S 684 mmHg 29%
14:00 +36°C° 0.1 mm 3 m/S 684 mmHg 27%
15:00 +36°C° 0.1 mm 3 m/S 684 mmHg 25%
16:00 +35°C° 0 mm 3 m/S 684 mmHg 28%
17:00 +34°C° 0 mm 4 m/S 683 mmHg 32%
18:00 +33°C° 0 mm 5 m/S 683 mmHg 35%
19:00 +30°C° 0.2 mm 4 m/S 684 mmHg 41%
20:00 +28°C° 0.2 mm 3 m/S 684 mmHg 47%
21:00 +26°C° 0.2 mm 3 m/S 684 mmHg 52%
22:00 +25°C° 0.2 mm 2 m/S 684 mmHg 54%
23:00 +25°C° 0.2 mm 2 m/S 684 mmHg 55%
Mehr zeigen